Air Resources Laboratory banner image
Air Resources Laboratory web site National Oceanic and Atmospheric Administration (NOAA)

tn roundup


Office: MEG

ASUS44 KMEG 121400
RWRTN
TENNESSEE HOURLY STATE WEATHER ROUNDUP
NATIONAL WEATHER SERVICE MEMPHIS TN
800 AM CST TUE DEC 12 2017

TNZ002-004-019-021-049-052-054-088>092-121500-
WEST TENNESSEE

CITY           SKY/WX    TMP DP  RH WIND       PRES   REMARKS
MEMPHIS INTL   PTCLDY    43  32  65 NW12      30.16R
NWS MEMPHIS      N/A     43 N/A N/A MISG        N/A
JACKSON        PTSUNNY   43  33  68 N16       30.13R
DYERSBURG      CLEAR     41  27  57 N17G24    30.16R
$$

TNZ008-025-027-028-033-062-065-066-121500-
NORTH MIDDLE TENNESSEE

CITY           SKY/WX    TMP DP  RH WIND       PRES   REMARKS
NASHVILLE      CLOUDY    41  33  73 NW16G22   30.04R
CLARKSVILLE    CLOUDY    38  24  57 N17       30.08R WCI  28
SMYRNA         CLOUDY    41  33  73 NW18      30.04R
CROSSVILLE     CLOUDY    37  29  72 NW18G26   29.92R WCI  27
$$

TNZ061-075-076-078-094-096-097-121500-
SOUTH MIDDLE TENNESSEE

CITY           SKY/WX    TMP DP  RH WIND       PRES   REMARKS
WINCHESTER     CLOUDY    41  30  65 N9        30.00R
$$

TNZ017-018-042-046-047-121500-
NORTHEAST TENNESSEE

CITY           SKY/WX    TMP DP  RH WIND       PRES   REMARKS
TRI CITIES     CLOUDY    41  31  67 W10       29.80R
$$

TNZ012-013-036-069-073-074-121500-
CENTRAL EAST TENNESSEE

CITY           SKY/WX    TMP DP  RH WIND       PRES   REMARKS
KNOXVILLE      CLOUDY    43  34  70 W9        29.88R
OAK RIDGE      CLOUDY    44  32  62 W7        29.90R
$$

TNZ083-085-099-121500-
SOUTHEAST TENNESSEE

CITY           SKY/WX    TMP DP  RH WIND       PRES   REMARKS
CHATTANOOGA    PTSUNNY   45  30  55 NW16      29.95R
$$

SKY/WX REPORTED AS FAIR MEANS FEW OR NO CLOUDS BELOW
12 THOUSAND FEET.